STARLINK-37730, 69303

Orbit data source: Space-Track

STARLINK-37730, 69303 is a payload satellite owned by SpaceX/Seattle (US) in SSO that was launched on Sat, 30 May 2026 UTC via an FALCON 9 launch vehicle from the Air Force Western Test Range (AFWTR). Payload-class satellites include a variety of spacecraft equipped with specific instruments for various scientific and technological missions. These include communications satellites like Starlink; space stations such as the ISS; scientific satellites like the Hubble; Earth observation satellites from companies like Planet Labs, Umbra, and HawkEye 360; GPS; miniature CubeSats for education and research; and military/defense satellites.

Loading next visibility...
Identifier
69303, 2026-119H
Orbit
SSO
Country
Flag of USUS
Related business
Manufacturer
SpaceX/Seattle
Mission
Operational spacecraft
Bus & Motor
STARLINK V2MO, Unknown motor
Mass
575 kg wet, ~530 kg dry
Launch date (UTC)
2026-05-30 (2 months ago)
Launch vehicle
FALCON 9
Launch site
Air Force Western Test Range (AFWTR)
Object type
Payload
Rocket body
Debris
Shape & HBR
BOX + PAN, 17.7 m
Radar Cross Section
Large (>1 m²)

Expand to show TLE details & history
Last TLE update: 11 hours ago

TLE from 11 hours ago
0 STARLINK-37730
1 69303U 26119H   26206.54358986  .00021839  00000-0  67624-3 0  9995
2 69303  97.2852 232.0731 0000455 316.2573  43.8633 15.33473759  9930
Epoch: 2026-07-25T13:02Z
TLE epoch observation values (Epoch: 2026-07-25T13:02:46.163Z)
Latitude
-0.00012°
Longitude
93.12641°
Altitude
468.345 km
Speed
7.632 km/s
True Right ascension
15h 28m 17s
True Declination
0° 00' 00"
Sunlit
Object was in daylight at epoch
Visualization orbit readout
Latitude
Unknown
Longitude
Unknown
Altitude
Unknown
Speed
Unknown
Apparent Right ascension
Unknown
Apparent Declination
Unknown
Sunlit
N/A
Visualization observer readout
Local Sidereal Time
13:35:38
Azimuth
Unknown
Elevation
Unknown
Doppler factor
Unknown
Orbital elements
Apogee altitude
462.712 km
Perigee altitude
462.089 km
Semi-major axis
6,840.537 km
Eccentricity
0.00005
Inclination
97.2852°
RAAN
232.0731°
Arg. of periapsis
316.2573°
True anomaly
43.86691°
Mean anomaly
43.8633°
Eccentric anomaly
43.86511°
Mean motion
3.83626 °/min
Orbital period
93.84 mins
BSTAR
0.00067624
Loading maneuver chart data...
Computing Atmospheric mass density...
Loading historical data...
Loading historical data...
Loading historical data...
Loading historical data...
Loading historical data...
Loading historical data...
Loading historical data...

Documentation

Showing up to 5 results
|